This is the latest recevied weather packets stored in our database for station/object XE2KK-10. If no packets are shown the sender has not sent any weather packets the latest 10 day(s).
| Time | Temp. | Humidity | Pressure | Rain* | Wind** | Luminosity | Snow |
|---|---|---|---|---|---|---|---|
| 1777922952 | 27.78° C | 45% | 1012.3 hPa | 0 mm | - | 371 W/m² | - |
| 1777919953 | 27.22° C | 46% | 1012.7 hPa | 0 mm | - | 423 W/m² | - |
| 1777919652 | 26.67° C | 48% | 1012.8 hPa | 0 mm | - | 462 W/m² | - |
| 1777919353 | 26.67° C | 47% | 1013 hPa | 0 mm | - | 424 W/m² | - |
| 1777919052 | 26.67° C | 48% | 1013.1 hPa | 0 mm | - | 440 W/m² | - |
| 1777918453 | 26.11° C | 48% | 1013.1 hPa | 0 mm | - | 462 W/m² | - |
| 1777918153 | 26.11° C | 49% | 1013.1 hPa | 0 mm | - | 359 W/m² | - |
| 1777917852 | 26.11° C | 48% | 1013 hPa | 0 mm | - | 350 W/m² | - |
| 1777916953 | 25.56° C | 49% | 1013.4 hPa | 0 mm | - | 326 W/m² | - |
| 1777916353 | 25.56° C | 49% | 1013.3 hPa | 0 mm | - | 276 W/m² | - |
| 1777916052 | 25.56° C | 50% | 1013.5 hPa | 0 mm | - | 285 W/m² | - |
| 1777915752 | 25.56° C | 49% | 1013.6 hPa | 0 mm | - | 289 W/m² | - |
| 1777915153 | 25.56° C | 49% | 1013.6 hPa | 0 mm | - | 366 W/m² | - |
| 1777914252 | 26.11° C | 48% | 1013.6 hPa | 0 mm | - | 645 W/m² | - |
| 1777913952 | 25.56° C | 50% | 1013.6 hPa | 0 mm | - | 392 W/m² | - |
| 1777912753 | 25° C | 50% | 1013.6 hPa | 0 mm | - | 507 W/m² | - |
| 1777912452 | 24.44° C | 51% | 1013.7 hPa | 0 mm | - | 534 W/m² | - |
| 1777911553 | 24.44° C | 51% | 1013.9 hPa | 0 mm | - | 373 W/m² | - |
| 1777911253 | 24.44° C | 52% | 1013.9 hPa | 0 mm | - | 409 W/m² | - |
| 1777909152 | 23.89° C | 54% | 1013.7 hPa | 0 mm | - | 432 W/m² | - |
| 1777908853 | 23.33° C | 54% | 1013.9 hPa | 0 mm | - | 495 W/m² | - |
| 1777908553 | 23.33° C | 55% | 1013.7 hPa | 0 mm | - | 377 W/m² | - |
| 1777907952 | 23.33° C | 55% | 1014.1 hPa | 0 mm | - | 440 W/m² | - |
| 1777907652 | 23.33° C | 55% | 1014 hPa | 0 mm | - | 379 W/m² | - |
| 1777907353 | 22.78° C | 57% | 1013.9 hPa | 0 mm | - | 387 W/m² | - |
* Rain latest hour (hover to see other rain measurements)
** Current wind speed in m/s (hover to see current wind gust speed)